Location: Newark
(33.6333°S, 78.8500°W)
Time: 14:04:21
(UTC+00:00)

Tiros 1 despin weight - Pass Details

Date: 24 September 2019
Orbit: 593 x 643 km, 48.2° (Epoch: 19 October)

Event Time Altitude Azimuth Distance (km) Brightness Sun altitude
Rises 06:04:49 0° 248° (WSW) 2,900 - -53.4°
Reaches altitude 10° 06:08:06 10° 224° (SW) 2,008 - -53.1°
Maximum altitude 06:10:42 15° 190° (S) 1,731 - -52.9°
Drops below altitude 10° 06:13:18 10° 155° (SSE) 2,028 - -52.7°
Sets 06:16:39 0° 131° (SE) 2,948 - -52.3°
